STARLINK-36662

Last updated on Sun Mar 15 2026 00:02:07 GMT+0000 (Coordinated Universal Time)

1 67832U 26033M 26073.60474367 .00696869 00000+0 27132-2 0 9995 2 67832 42.9964 240.2934 0003127 298.7172 61.3386 15.84526221 5418
UTC large
Height (km)
Speed (km/s)
/
Latitude / Longitude
Inclination (degrees)
Orbital Period (minutes)
Azimuth
Elevation
Range (km)
Doppler Factor

Next 0 passes for location: London (51.5072 / 0.1276)

Sorry there are no passes over London.